COSMOS 970 DEB, 10885

Orbit data source: Space-Track

COSMOS 970 DEB, 10885 is space debris in LEO originally from a launch on Wed, 21 Dec 1977 UTC launched from the Tyuratam Missile And Space Complex (TTMTR). Debris objects in space refer to the collection of defunct objects orbiting the Earth. Examples of debris include non-operational satellites, rocket bodies, and fragments generated from explosions, collisions, or faulty payload assembly.

Loading next visibility...
Identifier
10885, 1977-121AG
Orbit
LEO
Country
Flag of CISCIS
Related business
Manufacturer
Unknown
Mission
Spacecraft
Bus & Motor
Unknown
Mass
Unknown
Launch date (UTC)
1977-12-21 (48 years ago)
Launch vehicle
Unknown
Launch site
Tyuratam Missile And Space Complex (TTMTR)
Object type
Payload
Rocket body
Debris
Shape & HBR
Unknown shape, 0.1 m
Radar Cross Section
Small (<0.1 m²)

Expand to show TLE details & history
Last TLE update: 21 hours ago

TLE from 21 hours ago
0 COSMOS 970 DEB
1 10885U 77121AG  26171.11681618  .00000487  00000-0  63219-3 0  9992
2 10885  65.7919  54.4549 0059000  22.0056 128.4146 13.70402589407940
Epoch: 2026-06-20T02:48Z
TLE epoch observation values (Epoch: 2026-06-20T02:48:12.917Z)
Latitude
26.33945°
Longitude
-88.72839°
Altitude
1,027.605 km
Speed
7.327 km/s
True Right ascension
14h 46m 38s
True Declination
26° 12' 29"
Sunlit
Object was in daylight at epoch
Visualization orbit readout
Latitude
Unknown
Longitude
Unknown
Altitude
Unknown
Speed
Unknown
Apparent Right ascension
Unknown
Apparent Declination
Unknown
Sunlit
N/A
Visualization observer readout
Local Sidereal Time
10:17:52
Azimuth
Unknown
Elevation
Unknown
Doppler factor
Unknown
Orbital elements
Apogee altitude
1,040.162 km
Perigee altitude
953.14 km
Semi-major axis
7,374.788 km
Eccentricity
0.0059
Inclination
65.7919°
RAAN
54.4549°
Arg. of periapsis
22.0056°
True anomaly
128.94192°
Mean anomaly
128.4146°
Eccentric anomaly
128.6785°
Mean motion
3.42704 °/min
Orbital period
105.05 mins
BSTAR
0.00063219
Loading maneuver chart data...
Computing Atmospheric mass density...
Loading historical data...
Loading historical data...
Loading historical data...
Loading historical data...
Loading historical data...
Loading historical data...
Loading historical data...

Documentation

Showing up to 5 results
|